AUA210 EDDF-LOWW

Flight info

Callsign AUA210
Flight time 0h 56m
Altitude 31000
Route SULUS7S SULUS Z650 VEMUT/N0425F350 DCT ETVIS DCT BUDWA DCT BUDEX BUDEX2W
Aircraft A321/M-SDE3FGHIRWY/LB1

Departure

Time 2026-04-17 07:01
Airport Frankfurt Main Airport (EDDF)

Arrival

Time 2026-04-17 07:58
Airport Vienna International Airport (LOWW)
Time Latitude Longitude Altitude Speed Heading
2026-04-17 06:26 50.04468 8.56484 0 ft 0 kts 159°
2026-04-17 06:50 50.04472 8.56481 364 ft 3 kts 159°
2026-04-17 06:50 50.04497 8.56467 363 ft 4 kts 161°
2026-04-17 06:50 50.04522 8.56453 358 ft 4 kts 161°
2026-04-17 06:51 50.04548 8.56445 363 ft 4 kts 186°
2026-04-17 06:51 50.04572 8.56455 361 ft 2 kts 204°
2026-04-17 06:51 50.04574 8.56456 361 ft 0 kts 204°
2026-04-17 06:53 50.04572 8.56455 356 ft 1 kts 204°
2026-04-17 06:54 50.04539 8.56428 358 ft 7 kts 217°
2026-04-17 06:54 50.04513 8.56368 363 ft 6 kts 245°
2026-04-17 06:54 50.04499 8.56305 363 ft 6 kts 252°
2026-04-17 06:54 50.04481 8.56223 361 ft 12 kts 250°
2026-04-17 06:55 50.04452 8.56098 359 ft 11 kts 250°
2026-04-17 06:55 50.04433 8.56044 363 ft 11 kts 224°
2026-04-17 06:55 50.04355 8.56043 359 ft 12 kts 166°
2026-04-17 06:55 50.04275 8.56035 359 ft 12 kts 213°
2026-04-17 06:56 50.04236 8.55922 357 ft 12 kts 251°
2026-04-17 06:56 50.04202 8.55786 359 ft 15 kts 248°
2026-04-17 06:56 50.04164 8.55623 355 ft 18 kts 251°
2026-04-17 06:56 50.04118 8.55432 355 ft 20 kts 251°
2026-04-17 06:57 50.04076 8.55224 356 ft 21 kts 245°
2026-04-17 06:57 50.04017 8.55012 356 ft 21 kts 248°
2026-04-17 06:57 50.03959 8.54780 354 ft 25 kts 249°
2026-04-17 06:57 50.03899 8.54512 353 ft 23 kts 251°
2026-04-17 06:58 50.03857 8.54354 349 ft 17 kts 238°
2026-04-17 06:58 50.03801 8.54185 349 ft 18 kts 258°
2026-04-17 06:58 50.03750 8.53995 352 ft 20 kts 244°
2026-04-17 06:58 50.03698 8.53787 343 ft 18 kts 253°
2026-04-17 06:59 50.03652 8.53590 343 ft 21 kts 245°
2026-04-17 06:59 50.03589 8.53369 338 ft 24 kts 249°
2026-04-17 06:59 50.03533 8.53128 335 ft 24 kts 251°
2026-04-17 06:59 50.03489 8.52919 334 ft 19 kts 252°
2026-04-17 07:00 50.03445 8.52713 331 ft 21 kts 243°
2026-04-17 07:00 50.03370 8.52592 333 ft 15 kts 207°
2026-04-17 07:00 50.03267 8.52591 336 ft 15 kts 174°
2026-04-17 07:00 50.03162 8.52598 334 ft 15 kts 179°
2026-04-17 07:01 50.02978 8.52603 336 ft 62 kts 179°
2026-04-17 07:01 50.02189 8.52673 333 ft 160 kts 176°
2026-04-17 07:01 50.00965 8.52772 1118 ft 179 kts 179°
2026-04-17 07:01 49.99708 8.52768 1943 ft 182 kts 182°
2026-04-17 07:02 49.98429 8.52717 2520 ft 190 kts 180°
2026-04-17 07:02 49.97120 8.53111 2994 ft 199 kts 156°
2026-04-17 07:02 49.95981 8.54475 3291 ft 220 kts 130°
2026-04-17 07:02 49.95159 8.56644 3564 ft 245 kts 119°
2026-04-17 07:03 49.94388 8.59168 4034 ft 267 kts 109°
2026-04-17 07:03 49.94058 8.62010 5116 ft 270 kts 95°
2026-04-17 07:03 49.93913 8.64934 6107 ft 273 kts 95°
2026-04-17 07:03 49.93548 8.67855 7043 ft 278 kts 111°
2026-04-17 07:04 49.92596 8.70479 7814 ft 288 kts 129°
2026-04-17 07:04 49.91059 8.72574 8368 ft 302 kts 146°
2026-04-17 07:04 49.89329 8.74509 9175 ft 309 kts 140°
2026-04-17 07:04 49.87903 8.76994 9924 ft 318 kts 122°
2026-04-17 07:05 49.87028 8.80188 10456 ft 332 kts 101°
2026-04-17 07:05 49.87012 8.83812 11002 ft 342 kts 80°
2026-04-17 07:05 49.87433 8.87565 11234 ft 364 kts 79°
2026-04-17 07:05 49.87900 8.91505 11698 ft 376 kts 78°
2026-04-17 07:06 49.88381 8.95533 12368 ft 381 kts 78°
2026-04-17 07:06 49.88865 8.99602 13059 ft 386 kts 78°
2026-04-17 07:06 49.89345 9.03676 13739 ft 391 kts 78°
2026-04-17 07:06 49.89832 9.07862 14365 ft 395 kts 78°
2026-04-17 07:07 49.90319 9.12093 14960 ft 400 kts 78°
2026-04-17 07:07 49.90804 9.16367 15553 ft 403 kts 78°
2026-04-17 07:07 49.91291 9.20684 16118 ft 407 kts 78°
2026-04-17 07:07 49.91781 9.25035 16643 ft 411 kts 78°
2026-04-17 07:08 49.92276 9.29438 17170 ft 414 kts 78°
2026-04-17 07:08 49.92770 9.33827 17673 ft 418 kts 78°
2026-04-17 07:08 49.93273 9.38287 18196 ft 421 kts 78°
2026-04-17 07:08 49.93780 9.42805 18668 ft 425 kts 78°
2026-04-17 07:09 49.94288 9.47337 19116 ft 428 kts 78°
2026-04-17 07:09 49.94793 9.51857 19564 ft 431 kts 78°
2026-04-17 07:09 49.95305 9.56466 20031 ft 434 kts 78°
2026-04-17 07:09 49.95816 9.61115 20510 ft 437 kts 78°
2026-04-17 07:10 49.96328 9.65797 20984 ft 440 kts 78°
2026-04-17 07:10 49.96834 9.70461 21462 ft 443 kts 78°
2026-04-17 07:10 49.97351 9.75237 21966 ft 446 kts 78°
2026-04-17 07:10 49.97868 9.80029 22455 ft 449 kts 78°
2026-04-17 07:11 49.98386 9.84830 22923 ft 452 kts 78°
2026-04-17 07:11 49.98903 9.89635 23385 ft 455 kts 77°
2026-04-17 07:11 49.99430 9.94546 23837 ft 459 kts 77°
2026-04-17 07:11 49.99950 9.99401 24222 ft 461 kts 77°
2026-04-17 07:12 50.00478 10.04356 24618 ft 464 kts 78°
2026-04-17 07:12 50.01006 10.09344 25009 ft 467 kts 78°
2026-04-17 07:12 50.01527 10.14309 25390 ft 469 kts 78°
2026-04-17 07:12 50.02054 10.19364 25776 ft 472 kts 78°
2026-04-17 07:13 50.02582 10.24434 26144 ft 475 kts 78°
2026-04-17 07:13 50.03104 10.29465 26499 ft 477 kts 78°
2026-04-17 07:13 50.03636 10.34604 26846 ft 479 kts 78°
2026-04-17 07:13 50.04160 10.39680 27159 ft 482 kts 77°
2026-04-17 07:14 50.04694 10.44869 27465 ft 484 kts 77°
2026-04-17 07:14 50.05229 10.50086 27749 ft 486 kts 77°
2026-04-17 07:14 50.05754 10.55246 28006 ft 488 kts 77°
2026-04-17 07:14 50.06105 10.58720 28183 ft 489 kts 77°
2026-04-17 07:15 50.06678 10.64418 28466 ft 490 kts 77°
2026-04-17 07:15 50.07009 10.71025 28868 ft 494 kts 88°
2026-04-17 07:15 50.06633 10.76332 29198 ft 498 kts 98°
2026-04-17 07:15 50.05697 10.81550 29522 ft 500 kts 106°
2026-04-17 07:16 50.04601 10.86703 29850 ft 500 kts 106°
2026-04-17 07:16 50.03513 10.91854 30178 ft 499 kts 105°
2026-04-17 07:16 50.02435 10.96957 30470 ft 499 kts 105°
2026-04-17 07:16 50.01347 11.02104 30748 ft 499 kts 105°
2026-04-17 07:17 50.00262 11.07220 31052 ft 499 kts 105°
2026-04-17 07:17 49.99179 11.12304 31345 ft 499 kts 106°
2026-04-17 07:17 49.96986 11.22516 31948 ft 499 kts 106°
2026-04-17 07:18 49.95888 11.27631 32183 ft 499 kts 106°
2026-04-17 07:18 49.94799 11.32743 32257 ft 497 kts 105°
2026-04-17 07:18 49.92656 11.42904 32256 ft 495 kts 104°
2026-04-17 07:19 49.90728 11.53126 32252 ft 494 kts 102°
2026-04-17 07:19 49.88911 11.63461 32251 ft 494 kts 102°
2026-04-17 07:20 49.87634 11.73835 32249 ft 490 kts 94°
2026-04-17 07:20 49.86716 11.84300 32250 ft 490 kts 94°
2026-04-17 07:21 49.85773 11.94737 32245 ft 490 kts 94°
2026-04-17 07:21 49.84815 12.05249 32239 ft 490 kts 94°
2026-04-17 07:22 49.83871 12.15692 32244 ft 491 kts 94°
2026-04-17 07:22 49.82918 12.26156 32246 ft 491 kts 94°
2026-04-17 07:23 49.81956 12.36627 32249 ft 492 kts 94°
2026-04-17 07:23 49.80286 12.46922 32247 ft 500 kts 111°
2026-04-17 07:24 49.76661 12.56202 32244 ft 504 kts 122°
2026-04-17 07:24 49.72723 12.65137 32240 ft 504 kts 122°
2026-04-17 07:25 49.68774 12.74102 32239 ft 505 kts 122°
2026-04-17 07:25 49.64813 12.83034 32248 ft 505 kts 122°
2026-04-17 07:26 49.60840 12.91969 32256 ft 505 kts 122°
2026-04-17 07:26 49.56863 13.00896 32253 ft 505 kts 122°
2026-04-17 07:27 49.53516 13.08379 32261 ft 505 kts 122°
2026-04-17 07:27 49.49529 13.17262 32254 ft 505 kts 122°
2026-04-17 07:28 49.45526 13.26165 32248 ft 505 kts 122°
2026-04-17 07:28 49.41538 13.35007 32256 ft 505 kts 122°
2026-04-17 07:29 49.37508 13.43887 32253 ft 506 kts 122°
2026-04-17 07:29 49.33494 13.52709 32238 ft 506 kts 122°
2026-04-17 07:30 49.29445 13.61592 32253 ft 506 kts 122°
2026-04-17 07:30 49.25381 13.70357 32247 ft 507 kts 123°
2026-04-17 07:31 49.21219 13.79030 32252 ft 507 kts 124°
2026-04-17 07:31 49.17026 13.87686 32250 ft 507 kts 124°
2026-04-17 07:32 49.12849 13.96345 32245 ft 507 kts 124°
2026-04-17 07:32 49.08659 14.05072 32246 ft 507 kts 124°
2026-04-17 07:33 49.04495 14.13717 32245 ft 507 kts 124°
2026-04-17 07:33 49.00283 14.22411 32249 ft 508 kts 124°
2026-04-17 07:34 48.98177 14.26747 31939 ft 509 kts 124°
2026-04-17 07:34 48.96103 14.31002 31437 ft 509 kts 124°
2026-04-17 07:34 48.93992 14.35317 30918 ft 509 kts 124°
2026-04-17 07:34 48.91864 14.39606 30419 ft 509 kts 125°
2026-04-17 07:35 48.89712 14.43878 29929 ft 509 kts 125°
2026-04-17 07:35 48.87541 14.48144 29421 ft 509 kts 126°
2026-04-17 07:35 48.85370 14.52390 28918 ft 509 kts 126°
2026-04-17 07:35 48.83196 14.56640 28429 ft 510 kts 126°
2026-04-17 07:36 48.81026 14.60894 27945 ft 510 kts 126°
2026-04-17 07:36 48.78858 14.65152 27469 ft 510 kts 126°
2026-04-17 07:36 48.76691 14.69418 27003 ft 511 kts 126°
2026-04-17 07:36 48.74526 14.73679 26543 ft 511 kts 126°
2026-04-17 07:37 48.72356 14.77934 26091 ft 508 kts 126°
2026-04-17 07:37 48.70188 14.82175 25642 ft 505 kts 126°
2026-04-17 07:37 48.68039 14.86366 25209 ft 501 kts 126°
2026-04-17 07:37 48.65929 14.90474 24778 ft 498 kts 126°
2026-04-17 07:38 48.63804 14.94602 24351 ft 494 kts 126°
2026-04-17 07:38 48.61696 14.98691 23928 ft 491 kts 126°
2026-04-17 07:38 48.59733 15.02885 23449 ft 485 kts 118°
2026-04-17 07:38 48.58361 15.07476 22959 ft 477 kts 105°
2026-04-17 07:39 48.57498 15.12258 22478 ft 472 kts 101°
2026-04-17 07:39 48.56678 15.17044 22010 ft 469 kts 101°
2026-04-17 07:39 48.55859 15.21796 21538 ft 465 kts 102°
2026-04-17 07:39 48.55041 15.26508 21071 ft 462 kts 102°
2026-04-17 07:40 48.54227 15.31183 20615 ft 458 kts 102°
2026-04-17 07:40 48.53420 15.35814 20172 ft 455 kts 102°
2026-04-17 07:40 48.52625 15.40371 19737 ft 452 kts 102°
2026-04-17 07:40 48.51956 15.44993 19302 ft 446 kts 94°
2026-04-17 07:41 48.51682 15.49634 18873 ft 442 kts 91°
2026-04-17 07:41 48.51428 15.54241 18439 ft 439 kts 91°
2026-04-17 07:41 48.51174 15.58835 17940 ft 436 kts 92°
2026-04-17 07:41 48.50917 15.63384 17470 ft 433 kts 92°
2026-04-17 07:42 48.50662 15.67848 17003 ft 429 kts 92°
2026-04-17 07:42 48.50404 15.72334 16538 ft 426 kts 92°
2026-04-17 07:42 48.50147 15.76725 16087 ft 423 kts 92°
2026-04-17 07:42 48.49884 15.81151 15640 ft 419 kts 92°
2026-04-17 07:43 48.49623 15.85535 15191 ft 416 kts 92°
2026-04-17 07:43 48.49367 15.89837 14755 ft 412 kts 92°
2026-04-17 07:43 48.49109 15.94150 14320 ft 409 kts 92°
2026-04-17 07:43 48.48853 15.98384 13872 ft 406 kts 92°
2026-04-17 07:44 48.48594 16.02626 13388 ft 403 kts 93°
2026-04-17 07:44 48.48264 16.06745 12910 ft 400 kts 101°
2026-04-17 07:44 48.47245 16.10631 12436 ft 400 kts 120°
2026-04-17 07:44 48.45472 16.13835 12217 ft 399 kts 135°
2026-04-17 07:45 48.43472 16.16748 12248 ft 399 kts 135°
2026-04-17 07:45 48.41473 16.19655 12248 ft 399 kts 135°
2026-04-17 07:45 48.39471 16.22566 12247 ft 399 kts 135°
2026-04-17 07:45 48.37524 16.25394 12227 ft 382 kts 135°
2026-04-17 07:46 48.35652 16.28107 12005 ft 365 kts 135°
2026-04-17 07:46 48.33864 16.30695 11780 ft 350 kts 135°
2026-04-17 07:46 48.32141 16.33189 11528 ft 336 kts 135°
2026-04-17 07:46 48.30482 16.35592 11145 ft 329 kts 135°
2026-04-17 07:47 48.28834 16.37973 10747 ft 324 kts 135°
2026-04-17 07:47 48.27220 16.40299 10360 ft 318 kts 135°
2026-04-17 07:47 48.25635 16.42583 9955 ft 313 kts 134°
2026-04-17 07:47 48.24075 16.44832 9527 ft 308 kts 134°
2026-04-17 07:48 48.22540 16.47047 9107 ft 304 kts 134°
2026-04-17 07:48 48.21140 16.49343 8692 ft 299 kts 127°
2026-04-17 07:48 48.19841 16.51768 8213 ft 298 kts 127°
2026-04-17 07:48 48.18576 16.54214 7784 ft 294 kts 121°
2026-04-17 07:49 48.17555 16.56856 7355 ft 291 kts 116°
2026-04-17 07:49 48.16610 16.59535 6936 ft 290 kts 115°
2026-04-17 07:49 48.15673 16.62217 6508 ft 289 kts 115°
2026-04-17 07:49 48.14740 16.64855 6086 ft 285 kts 117°
2026-04-17 07:50 48.13722 16.67359 5677 ft 283 kts 120°
2026-04-17 07:50 48.12902 16.69987 5276 ft 276 kts 107°
2026-04-17 07:50 48.12290 16.72663 5014 ft 266 kts 105°
2026-04-17 07:50 48.11722 16.75213 5009 ft 253 kts 105°
2026-04-17 07:51 48.10943 16.77575 5010 ft 255 kts 128°
2026-04-17 07:51 48.09541 16.79086 4959 ft 247 kts 159°
2026-04-17 07:51 48.07864 16.79337 4734 ft 239 kts 192°
2026-04-17 07:51 48.06423 16.78314 4531 ft 227 kts 220°
2026-04-17 07:52 48.05422 16.76574 4302 ft 220 kts 250°
2026-04-17 07:52 48.05162 16.74380 4080 ft 214 kts 272°
2026-04-17 07:52 48.05276 16.72189 3929 ft 210 kts 289°
2026-04-17 07:52 48.05765 16.70226 3769 ft 193 kts 295°
2026-04-17 07:53 48.06262 16.68441 3612 ft 178 kts 296°
2026-04-17 07:53 48.06954 16.67033 3457 ft 165 kts 330°
2026-04-17 07:53 48.08007 16.66781 3308 ft 152 kts 15°
2026-04-17 07:53 48.08808 16.67759 3184 ft 154 kts 53°
2026-04-17 07:54 48.09212 16.69251 3076 ft 157 kts 77°
2026-04-17 07:54 48.09215 16.70898 3002 ft 161 kts 99°
2026-04-17 07:54 48.08535 16.72245 3007 ft 172 kts 147°
2026-04-17 07:54 48.07366 16.72514 3038 ft 174 kts 193°
2026-04-17 07:55 48.06419 16.71526 2961 ft 167 kts 242°
2026-04-17 07:55 48.06384 16.69929 2748 ft 154 kts 306°
2026-04-17 07:55 48.07134 16.68842 2539 ft 153 kts 321°
2026-04-17 07:55 48.07675 16.67442 2238 ft 159 kts 294°
2026-04-17 07:56 48.08122 16.65998 1945 ft 152 kts 302°
2026-04-17 07:56 48.08595 16.64594 1729 ft 149 kts 300°
2026-04-17 07:56 48.09047 16.63231 1490 ft 145 kts 300°
2026-04-17 07:56 48.09496 16.61869 1299 ft 146 kts 298°
2026-04-17 07:57 48.09946 16.60494 1078 ft 148 kts 298°
2026-04-17 07:57 48.10407 16.59086 885 ft 151 kts 298°
2026-04-17 07:57 48.10866 16.57692 718 ft 151 kts 299°
2026-04-17 07:57 48.11315 16.56331 631 ft 134 kts 301°
2026-04-17 07:58 48.11530 16.55720 611 ft 15 kts 299°
2026-04-17 07:58 48.11609 16.55513 618 ft 30 kts 300°
2026-04-17 07:58 48.11703 16.55290 614 ft 22 kts 308°
2026-04-17 07:58 48.11798 16.55163 613 ft 0 kts 333°
2026-04-17 08:00 48.11803 16.55160 612 ft 1 kts 337°
2026-04-17 08:00 48.11938 16.55139 609 ft 46 kts
2026-04-17 08:00 48.12055 16.55272 616 ft 18 kts 104°
2026-04-17 08:00 48.11965 16.55358 622 ft 16 kts 162°
2026-04-17 08:01 48.11889 16.55461 621 ft 15 kts 118°
2026-04-17 08:01 48.11841 16.55601 620 ft 15 kts 117°
2026-04-17 08:01 48.11799 16.55747 619 ft 16 kts 117°
2026-04-17 08:01 48.11756 16.55896 620 ft 16 kts 115°
2026-04-17 08:02 48.11704 16.56044 618 ft 16 kts 118°
2026-04-17 08:02 48.11662 16.56198 620 ft 16 kts 85°
2026-04-17 08:02 48.11738 16.56309 618 ft 16 kts 39°
2026-04-17 08:02 48.11735 16.56448 616 ft 14 kts 118°
2026-04-17 08:03 48.11706 16.56572 620 ft 10 kts 73°
2026-04-17 08:03 48.11752 16.56619 620 ft 6 kts 26°
2026-04-17 08:03 48.11760 16.56624 622 ft 1 kts 26°
2026-04-17 08:03 48.11762 16.56625 609 ft 0 kts 26°